Voltar ao catálogo

COSMOS 2251 DEB

AtivoLEO
NORAD 34120·DEBRIS·🇷🇺 Russia

Lançado Jun 16, 1993 de Plesetsk Cosmodrome

Loading…

Próximas Passagens (próximas 24 horas)

TLE

AtualizadoSource: Space-Track

Época: Sep 14, 2026, 07:04 UTC

1 34120U 93036KR  26257.29490569  .00000271  00000-0  17763-3 0  9994
2 34120  73.9900  98.7872 0182643 226.5037 311.2618 13.98919873898331

Acompanhe COSMOS 2251 DEB em tempo real com AllMySat

Download on the App Store